EA3KZ-1 Weather Reports


time (UTC)temp
C
wind
direction
speed
KPH
gust
KPH
rain 1hr
cm
rain 24hr
cm
rain mn
cm
humidity
%
barometer
mb
20260906190549 26 343 0.0 3.2 0.00 0.00 0.00 71 1018.0
20260906185547 27 12 3.2 6.4 0.00 0.00 0.00 70 1017.9
20260906184544 27 351 3.2 6.4 0.00 0.00 0.00 70 1017.8
20260906183541 27 354 3.2 6.4 0.00 0.00 0.00 70 1017.7
20260906182539 27 35 1.6 6.4 0.00 0.00 0.00 70 1017.7
20260906181536 27 357 4.8 6.4 0.00 0.00 0.00 69 1017.6
20260906180534 27 65 3.2 6.4 0.00 0.00 0.00 67 1017.7
20260906175531 27 329 6.4 9.7 0.00 0.00 0.00 66 1017.4
20260906174528 28 22 4.8 9.7 0.00 0.00 0.00 65 1017.5
20260906173526 28 6 4.8 9.7 0.00 0.00 0.00 64 1017.6
20260906172523 29 38 0.0 6.4 0.00 0.00 0.00 61 1017.4
20260906171521 29 24 4.8 6.4 0.00 0.00 0.00 60 1017.4
20260906170518 29 349 3.2 9.7 0.00 0.00 0.00 60 1017.6
20260906165515 29 17 4.8 6.4 0.00 0.00 0.00 59 1017.4
20260906164613 29 33 6.4 11.3 0.00 0.00 0.00 59 1017.4
20260906163610 30 23 4.8 11.3 0.00 0.00 0.00 58 1017.4
20260906162608 30 97 3.2 6.4 0.00 0.00 0.00 56 1017.4
20260906161605 31 108 4.8 12.9 0.00 0.00 0.00 54 1017.2
20260906160603 31 105 6.4 12.9 0.00 0.00 0.00 53 1017.2
20260906155600 32 70 4.8 11.3 0.00 0.00 0.00 51 1017.3
20260906154558 32 44 3.2 6.4 0.00 0.00 0.00 49 1017.2
20260906153555 33 114 1.6 6.4 0.00 0.00 0.00 48 1017.2
20260906152553 33 94 3.2 9.7 0.00 0.00 0.00 48 1017.1
20260906151550 33 16 4.8 9.7 0.00 0.00 0.00 48 1017.2
20260906150547 32 43 4.8 11.3 0.00 0.00 0.00 49 1017.3
20260906145545 33 31 6.4 12.9 0.00 0.00 0.00 47 1017.2
20260906144542 33 184 3.2 9.7 0.00 0.00 0.00 46 1017.3
20260906143539 32 23 8.0 12.9 0.00 0.00 0.00 47 1017.4
20260906142537 32 59 6.4 14.5 0.00 0.00 0.00 47 1017.4
20260906141534 33 42 6.4 17.7 0.00 0.00 0.00 46 1017.5
20260906140532 33 42 4.8 11.3 0.00 0.00 0.00 46 1017.5
20260906135529 33 56 4.8 12.9 0.00 0.00 0.00 44 1017.6
20260906134526 33 5 3.2 9.7 0.00 0.00 0.00 44 1017.6
20260906133524 33 355 4.8 9.7 0.00 0.00 0.00 43 1017.7
20260906132521 34 96 3.2 11.3 0.00 0.00 0.00 42 1017.8
20260906131519 33 68 3.2 9.7 0.00 0.00 0.00 43 1017.8
20260906130516 32 349 9.7 20.9 0.00 0.00 0.00 46 1017.7
20260906125614 33 36 6.4 17.7 0.00 0.00 0.00 44 1017.9
20260906124611 32 55 8.0 20.9 0.00 0.00 0.00 44 1017.9
20260906123608 32 52 6.4 17.7 0.00 0.00 0.00 43 1017.8
20260906122606 33 39 6.4 14.5 0.00 0.00 0.00 41 1017.9
20260906121603 33 147 4.8 14.5 0.00 0.00 0.00 40 1018.0
20260906120601 33 18 4.8 17.7 0.00 0.00 0.00 40 1018.0
20260906115558 33 96 3.2 9.7 0.00 0.00 0.00 40 1018.0
20260906114555 33 54 6.4 14.5 0.00 0.00 0.00 41 1018.1
20260906113553 33 48 4.8 12.9 0.00 0.00 0.00 39 1018.0
20260906112550 33 85 3.2 6.4 0.00 0.00 0.00 39 1018.2
20260906111548 32 18 3.2 9.7 0.00 0.00 0.00 40 1018.3
20260906110545 32 31 3.2 9.7 0.00 0.00 0.00 40 1018.3
20260906105543 33 334 3.2 6.4 0.00 0.00 0.00 39 1018.3
20260906104540 33 112 3.2 6.4 0.00 0.00 0.00 39 1018.4
20260906103537 33 150 1.6 6.4 0.00 0.00 0.00 39 1018.5
20260906102535 32 116 3.2 9.7 0.00 0.00 0.00 39 1018.5
20260906101532 32 45 1.6 6.4 0.00 0.00 0.00 39 1018.6
20260906100529 31 52 1.6 6.4 0.00 0.00 0.00 41 1018.6
20260906095527 32 107 1.6 6.4 0.00 0.00 0.00 40 1018.6
20260906094524 31 41 3.2 11.3 0.00 0.00 0.00 40 1018.6
20260906093522 31 142 3.2 6.4 0.00 0.00 0.00 40 1018.7
20260906092519 31 16 4.8 12.9 0.00 0.00 0.00 42 1018.6
20260906091516 30 28 4.8 11.3 0.00 0.00 0.00 42 1018.6
20260906090614 30 37 4.8 11.3 0.00 0.00 0.00 43 1018.6
20260906085612 30 59 4.8 11.3 0.00 0.00 0.00 43 1018.4
20260906084609 30 354 4.8 11.3 0.00 0.00 0.00 43 1018.4
20260906083607 30 23 3.2 11.3 0.00 0.00 0.00 42 1018.2
20260906082604 30 3 4.8 11.3 0.00 0.00 0.00 42 1018.2
20260906081601 30 30 6.4 12.9 0.00 0.00 0.00 41 1018.1
20260906080559 30 338 4.8 9.7 0.00 0.00 0.00 41 1018.0
20260906075556 30 349 0.0 3.2 0.00 0.00 0.00 41 1018.0
20260906074553 28 0.0 0.0 0.00 0.00 0.00 44 1017.8
20260906073551 28 293 1.6 3.2 0.00 0.00 0.00 45 1017.8
20260906072548 27 323 1.6 6.4 0.00 0.00 0.00 47 1017.8
20260906071546 27 0.0 3.2 0.00 0.00 0.00 48 1017.8
20260906070543 26 8 3.2 6.4 0.00 0.00 0.00 50 1017.9
20260906065540 25 6 6.4 11.3 0.00 0.00 0.00 50 1017.7
20260906064538 26 53 3.2 9.7 0.00 0.00 0.00 48 1017.7
20260906063535 26 24 3.2 6.4 0.00 0.00 0.00 48 1017.5
20260906062533 26 4 3.2 6.4 0.00 0.00 0.00 50 1017.3
20260906061530 26 119 1.6 3.2 0.00 0.00 0.00 51 1017.1
20260906060527 25 43 3.2 6.4 0.00 0.00 0.00 51 1017.1
20260906055525 25 68 0.0 3.2 0.00 0.00 0.00 51 1016.9
20260906054522 25 0.0 3.2 0.00 0.00 0.00 51 1016.9
20260906053520 24 106 0.0 3.2 0.00 0.00 0.00 52 1016.9
20260906052517 24 0.0 0.0 0.00 0.00 0.00 53 1016.9
20260906051515 24 0.0 3.2 0.00 0.00 0.00 51 1016.9
20260906050612 24 113 0.0 3.2 0.00 0.00 0.00 48 1016.8
20260906045609 25 180 0.0 3.2 0.00 0.00 0.00 48 1016.8
20260906044607 25 90 0.0 3.2 0.00 0.00 0.00 46 1016.8
20260906043604 25 237 3.2 6.4 0.00 0.00 0.00 45 1016.9
20260906042602 23 248 0.0 3.2 0.00 0.00 0.00 52 1016.9
20260906041559 23 248 0.0 3.2 0.00 0.00 0.00 52 1017.1
20260906040556 23 240 3.2 3.2 0.00 0.00 0.00 52 1017.1
20260906035554 24 173 1.6 3.2 0.00 0.00 0.00 51 1017.1
20260906034551 24 184 1.6 3.2 0.00 0.00 0.00 48 1017.2
20260906033549 24 227 1.6 6.4 0.00 0.00 0.00 48 1017.2
20260906032546 24 236 1.6 3.2 0.00 0.00 0.00 52 1017.4
20260906031544 23 193 3.2 3.2 0.00 0.00 0.00 53 1017.3
20260906030541 24 131 1.6 6.4 0.00 0.00 0.00 48 1017.3
20260906025538 25 215 1.6 3.2 0.00 0.00 0.00 44 1017.3
20260906024536 26 0.0 0.0 0.00 0.00 0.00 40 1017.3
20260906023533 26 241 3.2 6.4 0.00 0.00 0.00 42 1017.5
20260906022530 25 248 0.0 3.2 0.00 0.00 0.00 45 1017.4
20260906021528 26 245 4.8 6.4 0.00 0.00 0.00 42 1017.5
20260906020525 25 233 4.8 6.4 0.00 0.00 0.00 47 1017.4
20260906015523 25 225 6.4 9.7 0.00 0.00 0.00 49 1017.6
20260906014520 25 229 3.2 3.2 0.00 0.00 0.00 46 1017.6
20260906013517 25 133 1.6 3.2 0.00 0.00 0.00 46 1017.7
20260906012515 25 97 1.6 3.2 0.00 0.00 0.00 45 1017.6
20260906011613 26 270 0.0 3.2 0.00 0.00 0.00 41 1017.6
20260906010610 25 243 1.6 3.2 0.00 0.00 0.00 45 1017.7
20260906005607 25 235 3.2 6.4 0.00 0.00 0.00 45 1017.8
20260906004605 25 220 0.0 3.2 0.00 0.00 0.00 46 1017.9
20260906003602 25 237 0.0 3.2 0.00 0.00 0.00 46 1017.9
20260906002600 25 228 3.2 6.4 0.00 0.00 0.00 47 1018.0
20260906001557 25 231 1.6 3.2 0.00 0.00 0.00 52 1018.2
20260906000554 25 203 1.6 3.2 0.00 0.00 0.00 54 1018.3
20260905235552 25 225 1.6 3.2 0.00 0.00 0.00 54 1018.3
20260905234550 25 0.0 0.0 0.00 0.00 0.00 54 1018.4
20260905233547 25 248 0.0 3.2 0.00 0.00 0.00 53 1018.3
20260905232544 25 241 1.6 3.2 0.00 0.00 0.00 54 1018.4
20260905231541 24 234 4.8 9.7 0.00 0.00 0.00 55 1018.5
20260905230539 25 212 1.6 3.2 0.00 0.00 0.00 56 1018.8
20260905225536 25 0.0 0.0 0.00 0.00 0.00 55 1018.7
20260905224534 25 227 1.6 3.2 0.00 0.00 0.00 55 1018.7
20260905223531 25 180 0.0 3.2 0.00 0.00 0.00 57 1018.7
20260905222528 26 218 0.0 3.2 0.00 0.00 0.00 56 1018.8
20260905221526 26 233 4.8 6.4 0.00 0.00 0.00 56 1018.7
20260905220523 26 224 3.2 6.4 0.00 0.00 0.00 56 1018.6
20260905215521 26 233 3.2 6.4 0.00 0.00 0.00 56 1018.7
20260905214518 26 210 1.6 3.2 0.00 0.00 0.00 56 1018.8
20260905213515 26 225 3.2 6.4 0.00 0.00 0.00 55 1018.9
20260905212613 26 244 3.2 6.4 0.00 0.00 0.00 56 1019.0
20260905211611 26 0.0 0.0 0.00 0.00 0.00 60 1019.0
20260905210608 26 211 1.6 3.2 0.00 0.00 0.00 61 1018.9
20260905205605 26 0.0 0.0 0.00 0.00 0.00 62 1019.1
20260905204603 26 180 0.0 3.2 0.00 0.00 0.00 64 1019.1
20260905203600 26 211 3.2 6.4 0.00 0.00 0.00 62 1019.1
20260905202557 26 269 3.2 3.2 0.00 0.00 0.00 62 1019.1
20260905201555 27 312 1.6 3.2 0.00 0.00 0.00 62 1019.1
20260905200552 26 294 3.2 6.4 0.00 0.00 0.00 63 1019.0
20260905195550 26 303 4.8 6.4 0.00 0.00 0.00 65 1018.9
20260905194548 26 305 3.2 9.7 0.00 0.00 0.00 73 1019.0
20260905193545 26 309 4.8 9.7 0.00 0.00 0.00 75 1019.0
20260905192542 27 312 3.2 6.4 0.00 0.00 0.00 75 1019.0
20260905191539 27 340 3.2 6.4 0.00 0.00 0.00 74 1018.9